| time (UTC) | temp F | wind direction | speed MPH | gust MPH | rain 1hr in | rain 24hr in | rain mn in | humidity % | barometer mb |
| 20260505003043 | 50 | 82 | 8.0 | 18.0 | 0.00 | 0.00 | 0.00 | 53 | 1011.4 |
| 20260505002528 | 49 | 53 | 9.0 | 18.0 | 0.00 | 0.00 | 0.00 | 52 | 1011.4 |
| 20260505002028 | 49 | 83 | 10.0 | 18.0 | 0.00 | 0.00 | 0.00 | 53 | 1011.5 |
| 20260505001539 | 49 | 129 | 8.0 | 15.0 | 0.00 | 0.00 | 0.00 | 54 | 1011.4 |
| 20260505001028 | 49 | 134 | 7.0 | 15.0 | 0.00 | 0.00 | 0.00 | 54 | 1011.5 |
| 20260505000527 | 49 | 83 | 8.0 | 17.0 | 0.00 | 0.00 | 0.00 | 54 | 1011.5 |
| 20260505000044 | 49 | 95 | 9.0 | 17.0 | 0.00 | 0.00 | 0.00 | 53 | 1011.5 |
| 20260504235526 | 49 | 47 | 9.0 | 15.0 | 0.00 | 0.00 | 0.00 | 53 | 1011.4 |
| 20260504235028 | 49 | 76 | 8.0 | 15.0 | 0.00 | 0.00 | 0.00 | 54 | 1011.4 |
| 20260504234537 | 50 | 107 | 8.0 | 19.0 | 0.00 | 0.00 | 0.00 | 53 | 1011.3 |
| 20260504234028 | 51 | 92 | 9.0 | 19.0 | 0.00 | 0.00 | 0.00 | 52 | 1011.4 |
| 20260504233528 | 51 | 86 | 11.0 | 18.0 | 0.00 | 0.00 | 0.00 | 53 | 1011.3 |
| 20260504233043 | 51 | 98 | 8.0 | 18.0 | 0.00 | 0.00 | 0.00 | 54 | 1011.3 |
| 20260504232527 | 50 | 97 | 9.0 | 19.0 | 0.00 | 0.00 | 0.00 | 54 | 1011.2 |
| 20260504232027 | 51 | 87 | 8.0 | 19.0 | 0.00 | 0.00 | 0.00 | 52 | 1011.1 |
| 20260504231545 | 51 | 47 | 10.0 | 18.0 | 0.00 | 0.00 | 0.00 | 55 | 1011.1 |
| 20260504231027 | 50 | 74 | 10.0 | 18.0 | 0.00 | 0.00 | 0.00 | 52 | 1011.0 |
| 20260504230528 | 50 | 104 | 9.0 | 18.0 | 0.00 | 0.00 | 0.00 | 53 | 1011.2 |
| 20260504230045 | 50 | 58 | 9.0 | 24.0 | 0.00 | 0.00 | 0.00 | 53 | 1011.2 |
| 20260504225528 | 50 | 133 | 11.0 | 24.0 | 0.00 | 0.00 | 0.00 | 53 | 1011.2 |
| 20260504225028 | 50 | 86 | 8.0 | 19.0 | 0.00 | 0.00 | 0.00 | 54 | 1011.1 |
| 20260504224538 | 50 | 69 | 11.0 | 19.0 | 0.00 | 0.00 | 0.00 | 55 | 1011.1 |
| 20260504224027 | 50 | 105 | 10.0 | 18.0 | 0.00 | 0.00 | 0.00 | 55 | 1011.1 |
| 20260504223527 | 50 | 86 | 9.0 | 19.0 | 0.00 | 0.00 | 0.00 | 55 | 1011.2 |
| 20260504223038 | 50 | 111 | 9.0 | 19.0 | 0.00 | 0.00 | 0.00 | 56 | 1011.1 |
| 20260504222523 | 50 | 78 | 10.0 | 19.0 | 0.00 | 0.00 | 0.00 | 55 | 1011.2 |
| 20260504222027 | 50 | 65 | 10.0 | 17.0 | 0.00 | 0.00 | 0.00 | 56 | 1011.2 |
| 20260504221556 | 50 | 117 | 8.0 | 17.0 | 0.00 | 0.00 | 0.00 | 55 | 1011.3 |
| 20260504221025 | 50 | 88 | 10.0 | 17.0 | 0.00 | 0.00 | 0.00 | 55 | 1011.3 |
| 20260504220528 | 51 | 118 | 8.0 | 19.0 | 0.00 | 0.00 | 0.00 | 52 | 1011.3 |
| 20260504220044 | 51 | 102 | 12.0 | 19.0 | 0.00 | 0.00 | 0.00 | 52 | 1011.4 |
| 20260504215527 | 52 | 55 | 9.0 | 18.0 | 0.00 | 0.00 | 0.00 | 51 | 1011.4 |
| 20260504215027 | 51 | 96 | 9.0 | 18.0 | 0.00 | 0.00 | 0.00 | 52 | 1011.3 |
| 20260504214539 | 52 | 97 | 9.0 | 18.0 | 0.00 | 0.00 | 0.00 | 52 | 1011.4 |
| 20260504214027 | 52 | 46 | 9.0 | 18.0 | 0.00 | 0.00 | 0.00 | 56 | 1011.3 |
| 20260504213527 | 51 | 12 | 7.0 | 14.0 | 0.00 | 0.00 | 0.00 | 55 | 1011.4 |
| 20260504213052 | 50 | 47 | 7.0 | 16.0 | 0.00 | 0.00 | 0.00 | 58 | 1011.6 |
| 20260504212527 | 49 | 64 | 9.0 | 16.0 | 0.00 | 0.00 | 0.00 | 58 | 1011.7 |
| 20260504212025 | 48 | 80 | 4.0 | 15.0 | 0.00 | 0.00 | 0.00 | 62 | 1011.7 |
| 20260504211541 | 48 | 53 | 8.0 | 18.0 | 0.00 | 0.00 | 0.00 | 59 | 1012.0 |
| 20260504211028 | 49 | 104 | 11.0 | 18.0 | 0.00 | 0.00 | 0.00 | 59 | 1012.2 |
| 20260504210528 | 49 | 86 | 10.0 | 19.0 | 0.00 | 0.00 | 0.00 | 56 | 1012.1 |
| 20260504210045 | 49 | 94 | 11.0 | 21.0 | 0.00 | 0.00 | 0.00 | 54 | 1012.3 |
| 20260504205527 | 50 | 96 | 11.0 | 21.0 | 0.00 | 0.00 | 0.00 | 54 | 1012.3 |
| 20260504205026 | 50 | 51 | 9.0 | 19.0 | 0.00 | 0.00 | 0.00 | 53 | 1012.2 |
| 20260504204540 | 49 | 57 | 12.0 | 19.0 | 0.00 | 0.00 | 0.00 | 53 | 1012.2 |
| 20260504204028 | 49 | 58 | 12.0 | 18.0 | 0.00 | 0.00 | 0.00 | 52 | 1012.3 |
| 20260504203529 | 49 | 101 | 8.0 | 17.0 | 0.00 | 0.00 | 0.00 | 53 | 1012.3 |
| 20260504203048 | 50 | 71 | 9.0 | 19.0 | 0.00 | 0.00 | 0.00 | 54 | 1012.2 |
| 20260504202528 | 49 | 86 | 11.0 | 21.0 | 0.00 | 0.00 | 0.00 | 54 | 1012.2 |
| 20260504202027 | 49 | 76 | 7.0 | 21.0 | 0.00 | 0.00 | 0.00 | 55 | 1012.3 |
| 20260504201540 | 49 | 69 | 10.0 | 21.0 | 0.00 | 0.00 | 0.00 | 53 | 1012.2 |
| 20260504201027 | 49 | 93 | 10.0 | 19.0 | 0.00 | 0.00 | 0.00 | 56 | 1012.2 |
| 20260504200527 | 49 | 45 | 9.0 | 19.0 | 0.00 | 0.00 | 0.00 | 55 | 1012.3 |
| 20260504200039 | 50 | 105 | 11.0 | 20.0 | 0.00 | 0.00 | 0.00 | 53 | 1012.3 |
| 20260504195527 | 50 | 109 | 9.0 | 20.0 | 0.00 | 0.00 | 0.00 | 55 | 1012.1 |
| 20260504195027 | 50 | 49 | 9.0 | 19.0 | 0.00 | 0.00 | 0.00 | 57 | 1012.2 |
| 20260504194549 | 50 | 118 | 12.0 | 19.0 | 0.00 | 0.00 | 0.00 | 55 | 1012.1 |
| 20260504194025 | 51 | 113 | 10.0 | 19.0 | 0.00 | 0.00 | 0.00 | 56 | 1012.1 |
| 20260504193529 | 51 | 110 | 12.0 | 19.0 | 0.00 | 0.00 | 0.00 | 54 | 1012.1 |
| 20260504193041 | 51 | 56 | 12.0 | 22.0 | 0.00 | 0.00 | 0.00 | 55 | 1012.1 |
| 20260504192527 | 51 | 80 | 14.0 | 25.0 | 0.00 | 0.00 | 0.00 | 56 | 1012.1 |
| 20260504192028 | 50 | 89 | 12.0 | 25.0 | 0.00 | 0.00 | 0.00 | 56 | 1012.0 |
| 20260504191541 | 51 | 57 | 11.0 | 22.0 | 0.00 | 0.00 | 0.00 | 57 | 1011.9 |
| 20260504191028 | 51 | 65 | 12.0 | 22.0 | 0.00 | 0.00 | 0.00 | 57 | 1012.1 |
| 20260504190525 | 51 | 121 | 12.0 | 24.0 | 0.00 | 0.00 | 0.00 | 57 | 1012.0 |
| 20260504190038 | 51 | 118 | 12.0 | 24.0 | 0.00 | 0.00 | 0.00 | 55 | 1012.0 |
| 20260504185527 | 51 | 71 | 11.0 | 20.0 | 0.00 | 0.00 | 0.00 | 54 | 1011.9 |
| 20260504185030 | 51 | 114 | 13.0 | 22.0 | 0.00 | 0.00 | 0.00 | 56 | 1012.1 |
| 20260504184538 | 52 | 49 | 10.0 | 22.0 | 0.00 | 0.00 | 0.00 | 56 | 1012.0 |
| 20260504184030 | 51 | 67 | 12.0 | 22.0 | 0.00 | 0.00 | 0.00 | 59 | 1012.1 |
| 20260504183527 | 51 | 80 | 9.0 | 19.0 | 0.00 | 0.00 | 0.00 | 58 | 1012.2 |
| 20260504183039 | 50 | 85 | 11.0 | 19.0 | 0.00 | 0.00 | 0.00 | 61 | 1012.3 |
| 20260504182526 | 50 | 96 | 9.0 | 21.0 | 0.00 | 0.00 | 0.00 | 60 | 1012.3 |
| 20260504182025 | 49 | 97 | 11.0 | 21.0 | 0.00 | 0.00 | 0.00 | 62 | 1012.4 |
| 20260504181546 | 48 | 71 | 13.0 | 20.0 | 0.00 | 0.00 | 0.00 | 60 | 1012.6 |
| 20260504181029 | 48 | 83 | 12.0 | 20.0 | 0.00 | 0.00 | 0.00 | 60 | 1012.5 |
| 20260504180527 | 48 | 46 | 12.0 | 17.0 | 0.00 | 0.00 | 0.00 | 62 | 1012.6 |
| 20260504180048 | 48 | 50 | 8.0 | 16.0 | 0.00 | 0.00 | 0.00 | 62 | 1012.6 |
| 20260504175526 | 48 | 49 | 10.0 | 16.0 | 0.00 | 0.00 | 0.00 | 61 | 1012.6 |
| 20260504175025 | 48 | 62 | 7.0 | 16.0 | 0.00 | 0.00 | 0.00 | 65 | 1012.7 |
| 20260504174544 | 48 | 118 | 10.0 | 17.0 | 0.00 | 0.00 | 0.00 | 62 | 1012.8 |
| 20260504174025 | 47 | 88 | 12.0 | 17.0 | 0.00 | 0.00 | 0.00 | 62 | 1012.8 |
| 20260504173525 | 48 | 134 | 8.0 | 21.0 | 0.00 | 0.00 | 0.00 | 62 | 1012.8 |
| 20260504173039 | 47 | 86 | 6.0 | 21.0 | 0.00 | 0.00 | 0.00 | 62 | 1012.9 |
| 20260504172527 | 47 | 90 | 10.0 | 21.0 | 0.00 | 0.00 | 0.00 | 61 | 1012.9 |
| 20260504172026 | 47 | 107 | 13.0 | 19.0 | 0.00 | 0.00 | 0.00 | 61 | 1012.9 |
| 20260504171538 | 47 | 127 | 9.0 | 18.0 | 0.00 | 0.00 | 0.00 | 61 | 1013.0 |
| 20260504171026 | 47 | 52 | 9.0 | 18.0 | 0.00 | 0.00 | 0.00 | 63 | 1013.2 |
| 20260504170526 | 47 | 73 | 10.0 | 19.0 | 0.00 | 0.00 | 0.00 | 62 | 1013.0 |
| 20260504151025 | 47 | 71 | 8.0 | 15.0 | 0.00 | 0.02 | 0.00 | 64 | 1012.9 |
| 20260504150527 | 47 | 95 | 7.0 | 15.0 | 0.00 | 0.02 | 0.00 | 65 | 1012.9 |
| 20260504141028 | 46 | 67 | 5.0 | 15.0 | 0.00 | 0.02 | 0.00 | 65 | 1013.1 |
| 20260504140528 | 46 | 92 | 7.0 | 15.0 | 0.00 | 0.02 | 0.00 | 65 | 1013.2 |
| 20260504130524 | 44 | 69 | 5.0 | 11.0 | 0.00 | 0.02 | 0.00 | 66 | 1012.9 |
| 20260504110527 | 38 | 113 | 3.0 | 4.0 | 0.00 | 0.02 | 0.00 | 78 | 1009.8 |
| 20260504100524 | 36 | 0 | 0.0 | 3.0 | 0.00 | 0.02 | 0.00 | 78 | 1007.5 |
| 20260504081537 | 40 | 267 | 2.0 | 6.0 | 0.00 | 0.02 | 0.00 | 74 | 1007.4 |
| 20260504081031 | 40 | 233 | 3.0 | 6.0 | 0.00 | 0.02 | 0.00 | 75 | 1007.3 |
| 20260504080527 | 41 | 271 | 3.0 | 4.0 | 0.00 | 0.02 | 0.00 | 73 | 1007.4 |
| 20260504050529 | 46 | 257 | 1.0 | 5.0 | 0.00 | 0.02 | 0.02 | 67 | 1006.8 |
| 20260504045524 | 46 | 248 | 2.0 | 7.0 | 0.00 | 0.02 | 0.02 | 67 | 1006.9 |
| 20260504045024 | 46 | 261 | 3.0 | 7.0 | 0.00 | 0.02 | 0.02 | 68 | 1006.9 |
| 20260504044540 | 45 | 271 | 3.0 | 7.0 | 0.00 | 0.02 | 0.02 | 70 | 1007.0 |
| 20260504044025 | 44 | 257 | 1.0 | 3.0 | 0.00 | 0.02 | 0.02 | 70 | 1007.1 |
| 20260504043524 | 45 | 257 | 1.0 | 4.0 | 0.00 | 0.02 | 0.02 | 70 | 1007.0 |
| 20260504043038 | 45 | 257 | 2.0 | 4.0 | 0.00 | 0.02 | 0.02 | 70 | 1007.1 |
| 20260504042529 | 44 | 253 | 1.0 | 3.0 | 0.00 | 0.02 | 0.02 | 72 | 1007.2 |
| 20260504042028 | 44 | 253 | 2.0 | 3.0 | 0.00 | 0.02 | 0.02 | 73 | 1007.2 |
| 20260504041539 | 43 | 253 | 0.0 | 3.0 | 0.00 | 0.02 | 0.02 | 74 | 1007.2 |
| 20260504041024 | 43 | 253 | 0.0 | 1.0 | 0.00 | 0.02 | 0.02 | 74 | 1007.2 |
| 20260504040525 | 43 | 0 | 0.0 | 0.0 | 0.00 | 0.02 | 0.02 | 74 | 1007.2 |
| 20260504040059 | 43 | 0 | 0.0 | 0.0 | 0.00 | 0.02 | 0.02 | 71 | 1007.2 |
| 20260504035525 | 44 | 0 | 0.0 | 1.0 | 0.00 | 0.02 | 0.02 | 70 | 1007.3 |
| 20260504035023 | 45 | 0 | 0.0 | 2.0 | 0.00 | 0.02 | 0.02 | 67 | 1007.4 |
| 20260504034541 | 46 | 0 | 0.0 | 2.0 | 0.00 | 0.02 | 0.02 | 67 | 1007.3 |
| 20260504034026 | 47 | 253 | 0.0 | 3.0 | 0.00 | 0.02 | 0.02 | 65 | 1007.5 |
| 20260504033528 | 47 | 253 | 1.0 | 4.0 | 0.00 | 0.02 | 0.02 | 66 | 1007.4 |
| 20260504033039 | 46 | 252 | 2.0 | 4.0 | 0.00 | 0.02 | 0.02 | 67 | 1007.4 |
| 20260504032528 | 45 | 254 | 2.0 | 4.0 | 0.00 | 0.02 | 0.02 | 68 | 1007.4 |
| 20260504032027 | 45 | 255 | 2.0 | 4.0 | 0.00 | 0.02 | 0.02 | 68 | 1007.4 |
| 20260504031539 | 45 | 257 | 1.0 | 4.0 | 0.00 | 0.02 | 0.02 | 68 | 1007.4 |
| 20260504031024 | 46 | 256 | 2.0 | 4.0 | 0.00 | 0.02 | 0.02 | 67 | 1007.4 |
| 20260504030524 | 46 | 248 | 0.0 | 5.0 | 0.00 | 0.02 | 0.02 | 66 | 1007.4 |
| 20260504030038 | 48 | 0 | 0.0 | 5.0 | 0.00 | 0.02 | 0.02 | 65 | 1007.4 |
| 20260504025526 | 49 | 232 | 3.0 | 5.0 | 0.00 | 0.02 | 0.02 | 62 | 1007.4 |
| 20260504025027 | 49 | 253 | 2.0 | 5.0 | 0.00 | 0.02 | 0.02 | 62 | 1007.4 |
| 20260504024547 | 49 | 250 | 2.0 | 4.0 | 0.00 | 0.02 | 0.02 | 62 | 1007.4 |
| 20260504024030 | 49 | 239 | 2.0 | 4.0 | 0.00 | 0.02 | 0.02 | 64 | 1007.5 |
| 20260504023527 | 49 | 239 | 2.0 | 4.0 | 0.00 | 0.02 | 0.02 | 63 | 1007.4 |
| 20260504023045 | 50 | 0 | 0.0 | 3.0 | 0.00 | 0.02 | 0.02 | 63 | 1007.4 |
| 20260504022524 | 51 | 257 | 1.0 | 3.0 | 0.00 | 0.02 | 0.02 | 61 | 1007.3 |
| 20260504022025 | 52 | 257 | 1.0 | 5.0 | 0.00 | 0.02 | 0.02 | 61 | 1007.3 |
| 20260504021540 | 53 | 257 | 2.0 | 5.0 | 0.00 | 0.02 | 0.02 | 57 | 1007.4 |
| 20260504021026 | 55 | 223 | 2.0 | 5.0 | 0.00 | 0.02 | 0.02 | 56 | 1007.3 |
| 20260504020524 | 57 | 167 | 1.0 | 3.0 | 0.00 | 0.02 | 0.02 | 52 | 1007.2 |
| 20260504020039 | 59 | 0 | 0.0 | 0.0 | 0.00 | 0.02 | 0.02 | 48 | 1007.3 |
| 20260504015525 | 61 | 0 | 0.0 | 0.0 | 0.00 | 0.02 | 0.02 | 48 | 1007.3 |
| 20260504015025 | 63 | 0 | 0.0 | 0.0 | 0.00 | 0.02 | 0.02 | 48 | 1007.3 |
| 20260504014550 | 63 | 0 | 0.0 | 0.0 | 0.00 | 0.02 | 0.02 | 45 | 1007.4 |
| 20260504014024 | 63 | 0 | 0.0 | 0.0 | 0.00 | 0.02 | 0.02 | 41 | 1007.4 |
| 20260504013524 | 64 | 0 | 0.0 | 3.0 | 0.00 | 0.02 | 0.02 | 42 | 1007.5 |
| 20260504013038 | 64 | 0 | 0.0 | 4.0 | 0.00 | 0.02 | 0.02 | 41 | 1007.5 |
| 20260504012527 | 64 | 98 | 2.0 | 4.0 | 0.00 | 0.02 | 0.02 | 39 | 1007.6 |
| 20260504012027 | 64 | 98 | 1.0 | 6.0 | 0.00 | 0.02 | 0.02 | 40 | 1007.6 |
| 20260504011535 | 65 | 112 | 1.0 | 7.0 | 0.00 | 0.02 | 0.02 | 40 | 1007.6 |
| 20260504011026 | 65 | 116 | 3.0 | 7.0 | 0.00 | 0.02 | 0.02 | 40 | 1007.7 |
| 20260504010524 | 66 | 78 | 1.0 | 5.0 | 0.00 | 0.02 | 0.02 | 41 | 1007.7 |
| 20260504010049 | 66 | 79 | 1.0 | 6.0 | 0.00 | 0.02 | 0.02 | 39 | 1007.8 |
| 20260504005525 | 66 | 67 | 2.0 | 6.0 | 0.00 | 0.02 | 0.02 | 38 | 1007.7 |
| 20260504005025 | 66 | 67 | 2.0 | 9.0 | 0.00 | 0.02 | 0.02 | 39 | 1007.7 |
| 20260504004545 | 67 | 69 | 2.0 | 9.0 | 0.00 | 0.02 | 0.02 | 40 | 1007.8 |
| 20260504004024 | 67 | 103 | 3.0 | 11.0 | 0.00 | 0.02 | 0.02 | 36 | 1007.8 |
| 20260504003527 | 67 | 113 | 4.0 | 11.0 | 0.00 | 0.02 | 0.02 | 34 | 1007.8 |